Simultaneous Nadir Overpasses (SNOs) Predictions

Prediction of SNOs between GOES-15 and LANDSAT-8 Satellite Orbit:

Table of predicted SNOs for the next 14.0 days since TLE Epoch: 11/26/2022
Index Date Time (GOES-15) GOES-15 Lat,Lon LANDSAT-8 Lat,Lon Distance(km) Time Diff (sec)
1 11/26/2022 06:40:22 0.18,-128.10 0.35,-127.26 94.53 80
2 11/26/2022 19:01:37 -0.17,-128.05 0.78,-132.41 496.48 80
3 11/28/2022 06:28:11 0.17,-128.04 0.98,-124.31 424.47 80
4 11/28/2022 18:49:26 -0.16,-128.00 0.15,-129.46 166.45 80
5 11/30/2022 18:39:54 -0.15,-127.94 -0.43,-126.49 163.60 80
6 12/01/2022 07:01:19 0.14,-127.96 -0.63,-131.70 424.34 80
7 12/02/2022 18:27:43 -0.15,-127.88 -1.08,-123.54 493.60 80
8 12/03/2022 06:49:07 0.14,-127.90 -0.04,-128.73 94.44 80
9 12/05/2022 06:34:15 0.15,-127.84 0.57,-125.77 235.11 80
10 12/05/2022 18:55:30 -0.14,-127.79 0.56,-130.92 357.03 80
11 12/07/2022 18:43:18 -0.14,-127.72 -0.05,-127.96 28.11 80
12 12/09/2022 18:33:46 -0.13,-127.65 -0.68,-125.00 300.71 80
